Showing default

GALAXY 28 (IA 8), 28702

Orbit data source: Space-Track

GALAXY 28 (IA 8), 28702 is a payload satellite owned by Intelsat Ltd (US) (US) in GEO that was launched on Thu, 23 Jun 2005 UTC via a ZENIT-3SL launch vehicle from the Sea Launch (SEAL). Payload-class satellites include a variety of spacecraft equipped with specific instruments for various scientific and technological missions. These include communications satellites like Starlink; space stations such as the ISS; scientific satellites like the Hubble; Earth observation satellites from companies like Planet Labs, Umbra, and HawkEye 360; GPS; miniature CubeSats for education and research; and military/defense satellites.

Loading next visibility...
Identifier
28702, 2005-022A
Orbit
GEO
Last TLE update
13 hours ago
Origin
Manufacturer
SS/Loral
Mission
Operational Commercial Communications
Bus & Motor
SSL-1300, R-4D-11-164
Mass
5,493 kg wet, ~3,000 kg dry
Launch date (UTC)
2005-06-23 (20 years ago)
Launch vehicle
ZENIT-3SL
Launch site
Sea Launch (SEAL)
Object type
Payload
Rocket body
Debris
Shape & HBR
Box + 2 Pan, 2.6 m
Radar Cross Section
38.593 m², Large (>1 m²)

Expand to show TLE details & history

TLE from 13 hours ago
0 GALAXY 28 (IA 8)
1 28702U 05022A   25182.54963955 -.00000184  00000-0  00000-0 0  9996
2 28702   2.3943  83.3603 0002669  24.2575 281.3990  1.00271921 48460
Epoch: 2025-07-01T13:11Z
TLE epoch observation values (Epoch: 2025-07-01T13:11:28.857Z)
Latitude
-1.94643°
Longitude
-88.68942°
Altitude
35,784.081 km
Speed
3.075 km/s
True Right ascension
01h 56m 05s
True Declination
-1° 56' 40"
Sunlit
Object was in daylight at epoch
Visualization orbit readout
Latitude
1.41594°
Longitude
109.25402°
Altitude
35,791.448 km
Speed
3.074 km/s
Apparent Right ascension
15h 16m 22s
Apparent Declination
-4° 37' 16"
Sunlit
Object is in daylight
Visualization observer readout
Local Sidereal Time
14:01:55
Azimuth
154.534° SSE
Elevation
42.285°
Doppler factor
1
Orbital elements
Apogee altitude
35,798.879 km
Perigee altitude
35,776.37 km
Semi-major axis
42,165.761 km
Eccentricity
0.00027
Inclination
2.3943°
RAAN
83.3603°
Arg. of periapsis
24.2575°
True anomaly
Unknown
Mean anomaly
281.399°
Eccentric anomaly
Unknown
Mean motion
0.25067 °/min
Orbital period
1,436.15 mins
BSTAR
0
Loading historical data...
28702 neighbors
Loading maneuver chart data...
Loading SW <> Apogee altitude chart data...
Loading historical data...
Loading historical data...
Loading historical data...
Loading historical data...
Loading historical data...
Loading historical data...
Loading historical data...
Other satellites on launch #22 in the year 2005 (2005-06-23 UTC)

GALAXY 28 (IA 8) Visibility forecast

Observer location: undefined°, undefined°

Span
Click to sort rows by Start time (UTC) header in descending order
Start Az.
Max El. time (UTC)
Max El. Az.
Max El.
End time (UTC)
End Az.
1440 mins2025-07-02 02:20:51.953Z154.543° SSE2025-07-02 22:43:51.953Z154.074° SSE34.454°2025-07-03 02:20:51.953Z154.564° SSE
|